Tillbaka till svenska Fidonet
English   Information   Debug  
FILM   0/18
FNEWS_PUBLISH   5034
FN_SYSOP   42247
FN_SYSOP_OLD1   71952
FTP_FIDO   0/2
FTSC_PUBLIC   0/13979
FUNNY   0/4886
GENEALOGY.EUR   0/71
GET_INFO   105
GOLDED   0/408
HAM   3252/16786
HOLYSMOKE   0/6791
HOT_SITES   0/1
HTMLEDIT   0/71
HUB203   466
HUB_100   264
HUB_400   39
HUMOR   0/29
IC   0/2851
INTERNET   0/424
INTERUSER   0/3
IP_CONNECT   719
JAMNNTPD   0/233
JAMTLAND   0/47
KATTY_KORNER   0/41
LAN   0/16
LINUX-USER   0/19
LINUXHELP   0/1155
LINUX   0/22427
LINUX_BBS   0/957
mail   18.68
mail_fore_ok   249
MENSA   0/341
MODERATOR   0/102
MONTE   0/992
MOSCOW_OKLAHOMA   0/1245
MUFFIN   0/783
MUSIC   0/321
N203_STAT   938
N203_SYSCHAT   313
NET203   321
NET204   69
NET_DEV   0/10
NORD.ADMIN   0/101
NORD.CHAT   0/2572
NORD.FIDONET   189
NORD.HARDWARE   0/28
NORD.KULTUR   0/114
NORD.PROG   0/32
NORD.SOFTWARE   0/88
NORD.TEKNIK   0/58
NORD   0/453
OCCULT_CHAT   0/93
OS2BBS   0/787
OS2DOSBBS   0/580
OS2HW   0/42
OS2INET   0/37
OS2LAN   0/134
OS2PROG   0/36
OS2REXX   0/113
OS2USER-L   207
OS2   0/4835
OSDEBATE   0/18996
PASCAL   0/490
PERL   0/457
PHP   0/45
POINTS   0/405
POLITICS   0/29554
POL_INC   0/14731
PSION   103
R20_ADMIN   1133
R20_AMATORRADIO   0/2
R20_BEST_OF_FIDONET   16
R20_CHAT   0/897
R20_DEPP   0/3
R20_DEV   400
R20_ECHO2   1933
R20_ECHOPRES   0/35
R20_ESTAT   0/719
R20_FIDONETPROG...
...RAM.MYPOINT
  0/2
R20_FIDONETPROGRAM   0/22
R20_FIDONET   0/248
R20_FILEFIND   0/24
R20_FILEFOUND   0/22
R20_HIFI   0/3
R20_INFO2   3827
R20_INTERNET   0/12940
R20_INTRESSE   0/60
R20_INTR_KOM   0/99
R20_KANDIDAT.CHAT   42
R20_KANDIDAT   28
R20_KOM_DEV   112
R20_KONTROLL   0/13360
R20_KORSET   0/18
R20_LOKALTRAFIK   0/24
R20_MODERATOR   0/1852
R20_NC   76
R20_NET200   245
R20_NETWORK.OTH...
...ERNETS
  0/13
R20_OPERATIVSYS...
...TEM.LINUX
  0/44
R20_PROGRAMVAROR   0/1
R20_REC2NEC   534
R20_SFOSM   0/341
R20_SF   0/108
R20_SPRAK.ENGLISH   0/1
R20_SQUISH   107
R20_TEST   2
R20_WORST_OF_FIDONET   20
RAR   0/9
RA_MULTI   106
RA_UTIL   0/162
REGCON.EUR   0/2072
REGCON   0/13
SCIENCE   0/1206
SF   0/239
SHAREWARE_SUPPORT   0/5146
SHAREWRE   0/14
SIMPSONS   0/169
STATS_OLD1   1574/2539.065
STATS_OLD2   0/2530
STATS_OLD3   0/2395.095
STATS_OLD4   0/1692.25
SURVIVOR   0/495
SYSOPS_CORNER   0/3
SYSOP   0/84
TAGLINES   0/112
TEAMOS2   0/4530
TECH   0/2617
TEST.444   0/105
TRAPDOOR   0/19
TREK   0/755
TUB   0/290
UFO   0/40
UNIX   0/1316
USA_EURLINK   0/102
USR_MODEMS   0/1
VATICAN   0/2740
VIETNAM_VETS   0/14
VIRUS   0/378
VIRUS_INFO   0/201
VISUAL_BASIC   0/473
WHITEHOUSE   0/5187
WIN2000   0/101
WIN32   0/30
WIN95   0/4291
WIN95_OLD1   0/70272
WINDOWS   0/1517
WWB_SYSOP   0/419
WWB_TECH   348/810
ZCC-PUBLIC   0/1
ZEC   4

 
4DOS   0/134
ABORTION   0/7
ALASKA_CHAT   0/506
ALLFIX_FILE   0/1313
ALLFIX_FILE_OLD1   0/7997
ALT_DOS   0/152
AMATEUR_RADIO   0/1039
AMIGASALE   0/14
AMIGA   0/331
AMIGA_INT   0/1
AMIGA_PROG   0/20
AMIGA_SYSOP   0/26
ANIME   0/15
ARGUS   0/924
ASCII_ART   0/340
ASIAN_LINK   0/651
ASTRONOMY   0/417
AUDIO   0/92
AUTOMOBILE_RACING   0/105
BABYLON5   0/17862
BAG   135
BATPOWER   0/361
BBBS.ENGLISH   0/382
BBSLAW   0/109
BBS_ADS   0/5290
BBS_INTERNET   0/507
BIBLE   0/3563
BINKD   0/1119
BINKLEY   0/215
BLUEWAVE   0/2173
CABLE_MODEMS   0/25
CBM   0/46
CDRECORD   0/66
CDROM   0/20
CLASSIC_COMPUTER   0/378
COMICS   0/15
CONSPRCY   0/899
COOKING   42383
COOKING_OLD1   0/24719
COOKING_OLD2   13881/40862
COOKING_OLD3   0/37489
COOKING_OLD4   31804/35496
COOKING_OLD5   9370
C_ECHO   0/189
C_PLUSPLUS   0/31
DIRTY_DOZEN   0/201
DOORGAMES   1559/2388
DOS_INTERNET   0/196
duplikat   6102
ECHOLIST   10725/18295
EC_SUPPORT   247/318
ELECTRONICS   0/359
ELEKTRONIK.GER   1534
ENET.LINGUISTIC   0/13
ENET.POLITICS   0/4
ENET.SOFT   0/11701
ENET.SYSOP   34409
ENET.TALKS   0/32
ENGLISH_TUTOR   0/2000
EVOLUTION   0/1335
FDECHO   0/217
FDN_ANNOUNCE   3074/7068
FIDONEWS   25225
FIDONEWS_OLD1   0/49742
FIDONEWS_OLD2   0/35949
FIDONEWS_OLD3   0/30874
FIDONEWS_OLD4   0/37224
FIDO_SYSOP   12977
FIDO_UTIL   0/180
FILEFIND   0/209
FILEGATE   0/212
Möte HAM, 16786 texter
 lista första sista föregående nästa
Text 5010, 963 rader
Skriven 2012-01-12 23:31:08 av Amsat List (1:323/120.0)
Ärende: [keps] orb12012.amsa
============================
[keps] orb12012.amsa

Sender: keps-bounces@amsat.org
Return-Path: <keps-bounces@amsat.org>
X-Rcpt: craig.healy@chowda.com
X-UIDL: 1326428601.314

SB KEPS @ AMSAT  $ORB12012.O
Orbital Elements  12012.OSCAR

HR AMSAT ORBITAL ELEMENTS FOR OSCAR SATELLITES
FROM WA5QGD FORT WORTH,TX January 12, 2012
Send SUBSCRIBE KEPS/UNSUBSCRIBE KEPS to majordomo@amsat.org only
BID: ORB12012.O
TO ALL RADIO AMATEURS BT

Satellite: AO-07
Catalog number: 07530
Epoch time:      12011.68883717
Element set:    0280
Inclination:      101.3970 deg
RA of node:       015.0216 deg
Eccentricity:    0.0011844
Arg of perigee:   230.7597 deg
Mean anomaly:     129.2424 deg
Mean motion:   12.53586964 rev/day
Decay rate:       -2.7e-07 rev/day^2
Epoch rev:           70031
Checksum:              277

Satellite: FO-29
Catalog number: 24278
Epoch time:      12012.92920602
Element set:     750
Inclination:      098.5749 deg
RA of node:       134.1213 deg
Eccentricity:    0.0351286
Arg of perigee:   073.9280 deg
Mean anomaly:     290.0237 deg
Mean motion:   13.52975109 rev/day
Decay rate:       -6.5e-07 rev/day^2
Epoch rev:           76082
Checksum:              304

Satellite: SO-33
Catalog number: 25509
Epoch time:      12012.74892320
Element set:     142
Inclination:      031.4345 deg
RA of node:       138.8976 deg
Eccentricity:    0.0353425
Arg of perigee:   274.5501 deg
Mean anomaly:     081.4866 deg
Mean motion:   14.28649941 rev/day
Decay rate:       3.55e-06 rev/day^2
Epoch rev:           69026
Checksum:              310

Satellite: RS-22
Catalog number: 27939
Epoch time:      12012.68223029
Element set:     984
Inclination:      097.8226 deg
RA of node:       221.4126 deg
Eccentricity:    0.0014235
Arg of perigee:   044.7950 deg
Mean anomaly:     315.4397 deg
Mean motion:   14.63864553 rev/day
Decay rate:       4.47e-06 rev/day^2
Epoch rev:           44298
Checksum:              318

Satellite: VO-52
Catalog number: 28650
Epoch time:      12011.88890987
Element set:    0997
Inclination:      097.6167 deg
RA of node:       050.4244 deg
Eccentricity:    0.0026115
Arg of perigee:   195.3594 deg
Mean anomaly:     164.6801 deg
Mean motion:   14.82608848 rev/day
Decay rate:      1.319e-05 rev/day^2
Epoch rev:           36166
Checksum:              341

Satellite: SO-67
Catalog number: 35870
Epoch time:      12012.43576572
Element set:     581
Inclination:      097.2545 deg
RA of node:       053.6653 deg
Eccentricity:    0.0003062
Arg of perigee:   037.1181 deg
Mean anomaly:     076.9794 deg
Mean motion:   15.22533270 rev/day
Decay rate:      4.105e-05 rev/day^2
Epoch rev:           12875
Checksum:              301

Satellite: HO-68
Catalog number: 36122
Epoch time:      12012.79206796
Element set:      98
Inclination:      100.3871 deg
RA of node:       075.1564 deg
Eccentricity:    0.0007772
Arg of perigee:   106.2309 deg
Mean anomaly:     253.9657 deg
Mean motion:   13.16292364 rev/day
Decay rate:       -4.4e-07 rev/day^2
Epoch rev:            9981
Checksum:              310

/EX
SB KEPS @ AMSAT  $ORB12012.D
Orbital Elements  12012.MICROS

HR AMSAT ORBITAL ELEMENTS FOR THE MICROSATS
FROM WA5QGD FORT WORTH,TX January 12, 2012
Send SUBSCRIBE KEPS/UNSUBSCRIBE KEPS to majordomo@amsat.org only
BID: ORB12012.D
TO ALL RADIO AMATEURS BT

Satellite: UO-11
Catalog number: 14781
Epoch time:      12011.96942681
Element set:    0759
Inclination:      097.9786 deg
RA of node:       072.7112 deg
Eccentricity:    0.0009089
Arg of perigee:   174.9878 deg
Mean anomaly:     185.1427 deg
Mean motion:   14.80272496 rev/day
Decay rate:       3.56e-06 rev/day^2
Epoch rev:           49667
Checksum:              357

Satellite: AO-16
Catalog number: 20439
Epoch time:      12011.87773005
Element set:    0381
Inclination:      098.4118 deg
RA of node:       319.8121 deg
Eccentricity:    0.0010034
Arg of perigee:   266.3719 deg
Mean anomaly:     093.6315 deg
Mean motion:   14.32006508 rev/day
Decay rate:       1.29e-06 rev/day^2
Epoch rev:           14748
Checksum:              279

Satellite: LO-19
Catalog number: 20442
Epoch time:      12011.92476928
Element set:    0311
Inclination:      098.3767 deg
RA of node:       323.4273 deg
Eccentricity:    0.0011008
Arg of perigee:   256.7438 deg
Mean anomaly:     103.2520 deg
Mean motion:   14.32227972 rev/day
Decay rate:       1.33e-06 rev/day^2
Epoch rev:           14767
Checksum:              282

Satellite: AO-27
Catalog number: 22825
Epoch time:      12011.96200207
Element set:    0007
Inclination:      098.5571 deg
RA of node:       317.3717 deg
Eccentricity:    0.0008952
Arg of perigee:   026.5595 deg
Mean anomaly:     333.6043 deg
Mean motion:   14.29420394 rev/day
Decay rate:       1.43e-06 rev/day^2
Epoch rev:           95401
Checksum:              283

Satellite: IO-26
Catalog number: 22826
Epoch time:      12011.85278423
Element set:    0768
Inclination:      098.5518 deg
RA of node:       317.6775 deg
Eccentricity:    0.0009545
Arg of perigee:   020.9580 deg
Mean anomaly:     339.1989 deg
Mean motion:   14.29689917 rev/day
Decay rate:       1.30e-06 rev/day^2
Epoch rev:           95412
Checksum:              345

Satellite: GO-32
Catalog number: 25397
Epoch time:      12011.92312064
Element set:    0679
Inclination:      098.3459 deg
RA of node:       358.5226 deg
Eccentricity:    0.0001933
Arg of perigee:   048.6499 deg
Mean anomaly:     311.4858 deg
Mean motion:   14.23252427 rev/day
Decay rate:       1.50e-06 rev/day^2
Epoch rev:           70165
Checksum:              307

